Regional Weather Roundup
Issued by NWS

Home | Current Version | Previous Version | Text Only | Print | Product List | Glossary On
Versions: 1 2 3 4 5 6 7 8 9 10 11 12 13 14 15 16 17 18 19 20 21 22 23 24 25 26 27 28 29 30 31 32 33 34 35 36 37 38 39 40 41 42 43 44 45 46 47 48 49 50
000
ASUS43 KFSD 311210
RWRSD

WEATHER ROUNDUP FOR SOUTH DAKOTA
NATIONAL WEATHER SERVICE SIOUX FALLS SD
700 AM CDT TUE MAY 31 2016

NOTE: "FAIR" INDICATES FEW OR NO CLOUDS BELOW 12,000 FEET WITH NO
SIGNIFICANT WEATHER AND/OR OBSTRUCTIONS TO VISIBILITY.


SDZ001>005-009-010-012>017-311300-
NORTHWEST AND NORTH CENTRAL SOUTH DAKOTA

CITY           SKY/WX    TMP DP  RH WIND       PRES   REMARKS
BUFFALO          N/A     47  42  83 W33G40    29.84F
FAITH            N/A     46  36  68 W12       29.92R
MOBRIDGE       PTCLDY    51  43  74 W12       29.85S
$$

SDZ012>016-024>037-041>051-057-063-072>074-311300-
SOUTHWEST AND SOUTH CENTRAL SOUTH DAKOTA

CITY           SKY/WX    TMP DP  RH WIND       PRES   REMARKS
RAPID CTY ARPT CLEAR     44  34  67 SW7       29.99S
PIERRE         CLEAR     50  42  74 W14       29.94R
CUSTER         CLEAR     40  33  76 W15G26    30.04S
ELLSWORTH AFB  CLEAR     49  34  56 SW6       29.98S
PHILIP         PTCLDY    45  39  79 CALM      29.99S
PINE RIDGE     CLOUDY    46  43  89 SW3       30.06R
WINNER         FAIR      53  44  71 W12       29.98R
$$

SDZ004>011-016>023-039-040-311300-
NORTHEAST SOUTH DAKOTA

CITY           SKY/WX    TMP DP  RH WIND       PRES   REMARKS
ABERDEEN       MOSUNNY   54  51  90 W12       29.83R
WATERTOWN      PTSUNNY   58  54  86 W15       29.84R
BROOKINGS      CLOUDY    58  54  86 W6        29.87R
SISSETON         N/A     60  56  86 W10       29.78R
$$

SDZ017-020-022-023-036>040-048>070-311300-
SOUTHEAST SOUTH DAKOTA

CITY           SKY/WX    TMP DP  RH WIND       PRES   REMARKS
SIOUX FALLS    CLOUDY    59  54  83 NW7       29.90R
HURON          SUNNY     54  49  83 W16       29.89R
CHAMBERLAIN    CLEAR     53  49  86 W13G18    29.96R
MITCHELL       CLOUDY    56  52  86 W14       29.92R
YANKTON        CLOUDY    59  54  82 W15       29.92R
$$

ABBREVIATIONS USED IN REMARKS
   TC - TEMPERATURE IN CELSIUS
  WCI - WIND CHILL INDEX
   HX - HEAT INDEX
  VSB - VISIBILITY




USA.gov is the U.S. government's official web portal to all federal, state and local government web resources and services.